Time,TemperatureF,DewpointF,PressureIn,WindDirection,WindDirectionDegrees,WindSpeedMPH,WindSpeedGustMPH,Humidity,HourlyPrecipIn,Conditions,Clouds,dailyrainin,SoftwareType,DateUTC
2013-06-07 00:03:00,53.0,50.0,-100.00,NNW,342,4.0,7.0,90,0.00,,,0.52,,2013-06-07 05:03:00,
2013-06-07 00:12:00,53.0,50.0,-100.00,NNW,342,4.0,7.0,90,0.00,,,0.52,,2013-06-07 05:12:00,
2013-06-07 00:22:00,53.0,50.0,-100.00,NNW,342,4.0,7.0,90,0.00,,,0.52,,2013-06-07 05:22:00,
2013-06-07 00:52:00,52.0,50.0,-100.00,NNE,27,7.0,9.0,92,0.00,,,0.52,,2013-06-07 05:52:00,
2013-06-07 01:02:00,52.0,50.0,-100.00,NNE,27,7.0,9.0,92,0.00,,,0.52,,2013-06-07 06:02:00,
2013-06-07 01:12:00,52.0,50.0,-100.00,NNE,27,7.0,9.0,92,0.00,,,0.52,,2013-06-07 06:12:00,
2013-06-07 01:22:00,52.0,50.0,-100.00,NNE,27,7.0,9.0,92,0.00,,,0.52,,2013-06-07 06:22:00,
2013-06-07 01:52:00,52.0,48.0,-100.00,North,350,7.0,10.0,86,0.00,,,0.52,,2013-06-07 06:52:00,
2013-06-07 02:02:00,52.0,48.0,-100.00,North,350,7.0,10.0,86,0.00,,,0.52,,2013-06-07 07:02:00,
2013-06-07 02:12:00,52.0,48.0,-100.00,North,350,7.0,10.0,86,0.00,,,0.52,,2013-06-07 07:12:00,
2013-06-07 02:22:00,52.0,48.0,-100.00,North,350,7.0,10.0,86,0.00,,,0.52,,2013-06-07 07:22:00,
2013-06-07 02:52:00,52.0,49.0,-100.00,NNE,13,4.0,10.0,89,0.00,,,0.52,,2013-06-07 07:52:00,
2013-06-07 03:02:00,52.0,49.0,-100.00,NNE,13,4.0,10.0,89,0.00,,,0.52,,2013-06-07 08:02:00,
2013-06-07 03:12:00,52.0,49.0,-100.00,NNE,13,4.0,10.0,89,0.00,,,0.52,,2013-06-07 08:12:00,
2013-06-07 03:22:00,52.0,49.0,-100.00,NNE,13,4.0,10.0,89,0.00,,,0.52,,2013-06-07 08:22:00,
2013-06-07 03:52:00,52.0,49.0,-100.00,NNW,347,4.0,6.0,88,0.00,,,0.42,,2013-06-07 08:52:00,
2013-06-07 04:02:00,52.0,49.0,-100.00,NNW,347,4.0,6.0,88,0.00,,,0.42,,2013-06-07 09:02:00,
2013-06-07 04:12:00,52.0,49.0,-100.00,NNW,347,4.0,6.0,88,0.00,,,0.42,,2013-06-07 09:12:00,
2013-06-07 04:22:00,52.0,49.0,-100.00,NNW,347,4.0,6.0,88,0.00,,,0.42,,2013-06-07 09:22:00,
2013-06-07 04:53:00,51.0,49.0,-100.00,NE,37,10.0,12.0,93,0.02,,,0.44,,2013-06-07 09:53:00,
2013-06-07 05:02:00,51.0,49.0,-100.00,NE,37,10.0,12.0,93,0.02,,,0.44,,2013-06-07 10:02:00,
2013-06-07 05:12:00,51.0,49.0,-100.00,NE,37,10.0,12.0,93,0.02,,,0.44,,2013-06-07 10:12:00,
2013-06-07 05:23:00,51.0,49.0,-100.00,NE,37,10.0,12.0,93,0.02,,,0.44,,2013-06-07 10:23:00,
2013-06-07 05:53:00,51.0,47.0,-100.00,NNE,17,3.0,13.0,85,0.00,,,0.34,,2013-06-07 10:53:00,
2013-06-07 06:02:00,51.0,47.0,-100.00,NNE,17,3.0,13.0,85,0.00,,,0.34,,2013-06-07 11:02:00,
2013-06-07 06:12:00,51.0,47.0,-100.00,NNE,17,3.0,13.0,85,0.00,,,0.34,,2013-06-07 11:12:00,
2013-06-07 06:22:00,51.0,47.0,-100.00,NNE,17,3.0,13.0,85,0.00,,,0.34,,2013-06-07 11:22:00,
2013-06-07 06:52:00,52.0,48.0,-100.00,North,4,3.0,4.0,87,0.00,,,0.19,,2013-06-07 11:52:00,
2013-06-07 07:02:00,52.0,48.0,-100.00,North,4,3.0,4.0,87,0.00,,,0.19,,2013-06-07 12:02:00,
2013-06-07 07:12:00,52.0,48.0,-100.00,North,4,3.0,4.0,87,0.00,,,0.19,,2013-06-07 12:12:00,
2013-06-07 07:22:00,52.0,48.0,-100.00,North,4,3.0,4.0,87,0.00,,,0.19,,2013-06-07 12:22:00,
2013-06-07 07:52:00,53.0,49.0,-100.00,NW,312,3.0,6.0,87,0.00,,,0.11,,2013-06-07 12:52:00,
2013-06-07 08:02:00,53.0,49.0,-100.00,NW,312,3.0,6.0,87,0.00,,,0.11,,2013-06-07 13:02:00,
2013-06-07 08:12:00,53.0,49.0,-100.00,NW,312,3.0,6.0,87,0.00,,,0.11,,2013-06-07 13:12:00,
2013-06-07 08:22:00,53.0,49.0,-100.00,NW,312,3.0,6.0,87,0.00,,,0.11,,2013-06-07 13:22:00,
2013-06-07 08:52:00,56.0,50.0,-100.00,NE,47,3.0,8.0,79,0.00,,,0.11,,2013-06-07 13:52:00,
2013-06-07 09:02:00,56.0,50.0,-100.00,NE,47,3.0,8.0,79,0.00,,,0.11,,2013-06-07 14:02:00,
2013-06-07 09:12:00,56.0,50.0,-100.00,NE,47,3.0,8.0,79,0.00,,,0.11,,2013-06-07 14:12:00,
2013-06-07 09:22:00,56.0,50.0,-100.00,NE,47,3.0,8.0,79,0.00,,,0.11,,2013-06-07 14:22:00,
2013-06-07 09:52:00,59.0,52.0,-100.00,ENE,59,5.0,6.0,78,0.00,,,0.11,,2013-06-07 14:52:00,
2013-06-07 10:02:00,59.0,52.0,-100.00,ENE,59,5.0,6.0,78,0.00,,,0.11,,2013-06-07 15:02:00,
2013-06-07 10:12:00,59.0,52.0,-100.00,ENE,59,5.0,6.0,78,0.00,,,0.11,,2013-06-07 15:12:00,
2013-06-07 10:23:00,59.0,52.0,-100.00,ENE,59,5.0,6.0,78,0.00,,,0.11,,2013-06-07 15:23:00,
2013-06-07 10:53:00,63.0,52.0,-100.00,ESE,105,4.0,9.0,67,0.00,,,-99.99,,2013-06-07 15:53:00,
2013-06-07 11:03:00,63.0,52.0,-100.00,ESE,105,4.0,9.0,67,0.00,,,-99.99,,2013-06-07 16:03:00,
2013-06-07 11:13:00,63.0,52.0,-100.00,ESE,105,4.0,9.0,67,0.00,,,-99.99,,2013-06-07 16:13:00,
2013-06-07 11:22:00,63.0,52.0,-100.00,ESE,105,4.0,9.0,67,0.00,,,-99.99,,2013-06-07 16:22:00,
2013-06-07 11:53:00,63.0,51.0,-100.00,ESE,102,5.0,9.0,64,0.00,,,0.11,,2013-06-07 16:53:00,
2013-06-07 12:03:00,63.0,51.0,-100.00,ESE,102,5.0,9.0,64,0.00,,,0.11,,2013-06-07 17:03:00,
2013-06-07 12:13:00,63.0,51.0,-100.00,ESE,102,5.0,9.0,64,0.00,,,0.11,,2013-06-07 17:13:00,
2013-06-07 12:23:00,63.0,51.0,-100.00,ESE,102,5.0,9.0,64,0.00,,,0.11,,2013-06-07 17:23:00,
2013-06-07 12:52:00,68.0,50.0,-100.00,ESE,118,4.0,9.0,52,0.00,,,0.11,,2013-06-07 17:52:00,
2013-06-07 13:07:00,68.0,50.0,-100.00,ESE,118,4.0,9.0,52,0.00,,,0.11,,2013-06-07 18:07:00,
2013-06-07 13:19:00,68.0,50.0,-100.00,ESE,118,4.0,9.0,52,0.00,,,0.11,,2013-06-07 18:19:00,
2013-06-07 13:24:00,68.0,50.0,-100.00,ESE,118,4.0,9.0,52,0.00,,,0.11,,2013-06-07 18:24:00,
2013-06-07 13:28:00,70.0,48.0,-100.00,SE,129,6.0,12.0,46,0.00,,,0.11,,2013-06-07 18:28:00,
2013-06-07 14:07:00,70.0,48.0,-100.00,SE,129,6.0,12.0,46,0.00,,,0.11,,2013-06-07 19:07:00,
2013-06-07 14:15:00,70.0,48.0,-100.00,SE,129,6.0,12.0,46,0.00,,,0.11,,2013-06-07 19:15:00,
2013-06-07 14:59:00,70.0,49.0,-100.00,ENE,59,4.0,9.0,48,0.00,,,0.11,,2013-06-07 19:59:00,
2013-06-07 15:07:00,70.0,49.0,-100.00,ENE,59,4.0,9.0,48,0.00,,,0.11,,2013-06-07 20:07:00,
2013-06-07 15:16:00,70.0,49.0,-100.00,ENE,59,4.0,9.0,48,0.00,,,0.11,,2013-06-07 20:16:00,
2013-06-07 15:25:00,70.0,49.0,-100.00,ENE,59,4.0,9.0,48,0.00,,,0.11,,2013-06-07 20:25:00,
2013-06-07 15:58:00,69.0,48.0,-100.00,ENE,57,4.0,10.0,48,0.00,,,0.11,,2013-06-07 20:58:00,
2013-06-07 16:05:00,69.0,48.0,-100.00,ENE,57,4.0,10.0,48,0.00,,,0.11,,2013-06-07 21:05:00,
2013-06-07 16:27:00,69.0,48.0,-100.00,ENE,57,4.0,10.0,48,0.00,,,0.11,,2013-06-07 21:27:00,
2013-06-07 16:28:00,69.0,50.0,-100.00,ENE,66,5.0,15.0,50,0.00,,,0.11,,2013-06-07 21:28:00,
2013-06-07 17:01:00,69.0,50.0,-100.00,ENE,66,5.0,15.0,50,0.00,,,0.11,,2013-06-07 22:01:00,
2013-06-07 17:08:00,69.0,50.0,-100.00,ENE,66,5.0,15.0,50,0.00,,,0.11,,2013-06-07 22:08:00,
2013-06-07 17:21:00,69.0,50.0,-100.00,ENE,66,5.0,15.0,50,0.00,,,0.11,,2013-06-07 22:21:00,
2013-06-07 17:59:00,69.0,50.0,-100.00,NNE,18,3.0,7.0,51,0.00,,,0.11,,2013-06-07 22:59:00,
2013-06-07 18:08:00,69.0,50.0,-100.00,NNE,18,3.0,7.0,51,0.00,,,0.11,,2013-06-07 23:08:00,
2013-06-07 18:18:00,69.0,50.0,-100.00,NNE,18,3.0,7.0,51,0.00,,,0.11,,2013-06-07 23:18:00,
2013-06-07 19:03:00,70.0,48.0,-100.00,NNW,341,4.0,7.0,45,0.00,,,0.11,,2013-06-08 00:03:00,
2013-06-07 19:11:00,70.0,48.0,-100.00,NNW,341,4.0,7.0,45,0.00,,,0.11,,2013-06-08 00:11:00,
2013-06-07 19:17:00,70.0,48.0,-100.00,NNW,341,4.0,7.0,45,0.00,,,0.11,,2013-06-08 00:17:00,
2013-06-07 19:27:00,70.0,48.0,-100.00,NNW,341,4.0,7.0,45,0.00,,,0.11,,2013-06-08 00:27:00,
2013-06-07 20:01:00,66.0,51.0,-100.00,ENE,57,5.0,10.0,58,0.00,,,0.06,,2013-06-08 01:01:00,
2013-06-07 20:07:00,66.0,51.0,-100.00,ENE,57,5.0,10.0,58,0.00,,,0.06,,2013-06-08 01:07:00,
2013-06-07 20:18:00,66.0,51.0,-100.00,ENE,57,5.0,10.0,58,0.00,,,0.06,,2013-06-08 01:18:00,
2013-06-07 20:27:00,66.0,51.0,-100.00,ENE,57,5.0,10.0,58,0.00,,,0.06,,2013-06-08 01:27:00,
2013-06-07 20:28:00,61.0,50.0,-100.00,ENE,63,6.0,9.0,68,0.00,,,0.06,,2013-06-08 01:28:00,
2013-06-07 21:01:00,61.0,50.0,-100.00,ENE,63,6.0,9.0,68,0.00,,,0.06,,2013-06-08 02:01:00,
2013-06-07 21:08:00,61.0,50.0,-100.00,ENE,63,6.0,9.0,68,0.00,,,0.06,,2013-06-08 02:08:00,
2013-06-07 21:15:00,61.0,50.0,-100.00,ENE,63,6.0,9.0,68,0.00,,,0.06,,2013-06-08 02:15:00,
2013-06-07 21:59:00,59.0,51.0,-100.00,East,89,3.0,7.0,74,0.00,,,0.06,,2013-06-08 02:59:00,
2013-06-07 22:09:00,59.0,51.0,-100.00,East,89,3.0,7.0,74,0.00,,,0.06,,2013-06-08 03:09:00,
2013-06-07 22:16:00,59.0,51.0,-100.00,East,89,3.0,7.0,74,0.00,,,0.06,,2013-06-08 03:16:00,
2013-06-07 22:27:00,59.0,51.0,-100.00,East,89,3.0,7.0,74,0.00,,,0.06,,2013-06-08 03:27:00,
2013-06-07 23:03:00,59.0,48.0,-100.00,SE,132,2.0,5.0,68,0.00,,,0.02,,2013-06-08 04:03:00,
2013-06-07 23:13:00,59.0,48.0,-100.00,SE,132,2.0,5.0,68,0.00,,,0.02,,2013-06-08 04:13:00,
2013-06-07 23:23:00,59.0,48.0,-100.00,SE,132,2.0,5.0,68,0.00,,,0.02,,2013-06-08 04:23:00,
2013-06-07 23:53:00,57.0,50.0,-100.00,West,264,3.0,4.0,76,0.00,,,0.02,,2013-06-08 04:53:00,